Regional Weather Roundup
Issued by NWS

Home | Current Version | Previous Version | Text Only | Print | Product List | Glossary On
Versions: 1 2 3 4 5 6 7 8 9 10 11 12 13 14 15 16 17 18 19 20 21 22 23 24 25 26 27 28 29 30 31 32 33 34 35 36 37 38 39 40 41 42 43 44 45 46 47 48 49 50
000
ASUS43 KLMK 051710
RWRKY
KENTUCKY REGIONAL WEATHER ROUNDUP
NATIONAL WEATHER SERVICE LOUISVILLE KY
100 PM EDT THU MAY 05 2016

NOTE "FAIR" INDICATES FEW OR NO CLOUDS BELOW 12,000 FEET
WITH NO SIGNIFICANT WEATHER AND/OR OBSTRUCTIONS TO VISIBILITY.

KYZ001>023-026-027-061>063-070>075-051800-
WESTERN AND SOUTH CENTRAL KENTUCKY

CITY           SKY/WX    TMP DP  RH WIND       PRES   REMARKS
PADUCAH        PTSUNNY   59  42  53 N18G25    29.96R
HENDERSON      CLOUDY    54  39  58 NW9       29.95S
OWENSBORO      CLOUDY    54  41  61 NW14      29.94R
HOPKINSVILLE   PTSUNNY   53  41  63 N12G20    29.92R
BOWLING GREEN  CLOUDY    54  39  57 NW13G20   29.90R
GLASGOW        CLOUDY    49  41  74 NW6       29.88S
$$

KYZ024-025-028>034-038-045-046-053-051800-
NORTH CENTRAL KENTUCKY

CITY           SKY/WX    TMP DP  RH WIND       PRES   REMARKS
LOUISVILLE/SDF PTSUNNY   52  38  58 N16       29.89R
LOUISVILLE/LOU CLOUDY    50  38  63 NW10      29.90R
FORT KNOX      CLOUDY    49  41  72 N10       29.87R
$$

KYZ035>037-039>044-047>052-055>060-089>105-051800-
NORTHEAST KENTUCKY

CITY           SKY/WX    TMP DP  RH WIND       PRES   REMARKS
LEXINGTON      CLOUDY    48  38  68 N9        29.85R
COVINGTON      CLOUDY    50  39  66 NW13      29.86R
FRANKFORT      CLOUDY    51  37  58 VRB5      29.85S
$$

KYZ054-064>069-076>088-106>120-051800-
SOUTHEAST KENTUCKY

CITY           SKY/WX    TMP DP  RH WIND       PRES   REMARKS
JACKSON        LGT RAIN  47  41  80 VRB6      29.79S
LONDON         CLOUDY    50  39  66 N8        29.80R
SOMERSET       CLOUDY    46  37  71 N7        29.85R
MIDDLESBORO    CLOUDY    48  43  82 N5        29.80S
MONTICELLO     CLOUDY    47  41  80 N17G24    29.85R
$$





USA.gov is the U.S. government's official web portal to all federal, state and local government web resources and services.